Flag for Germany Weather past 2 weeks in Hilden, North Rhine-Westphalia, Germany

Now
37 °F

Partly cloudy.


Feels Like: 31 °F
Forecast: 36 / 39 °F
Wind: 8 mph from West

Location: Duesseldorf

Current Time: Dec 25, 2014 at 11:10:54 PM

Latest Report: Dec 25, 2014 at 10:20 PM


Visibility: N/A

Pressure: 30.36 "Hg

Humidity: 93%

Dew point: 36 °F

Location of HildenLocation

Historic Weather in Hilden — Graph

°F

Hilden temperature yesterday

Maximum temperature yesterday: 50 °F (at 12:20 AM)
Minimum temperature yesterday: 41 °F (at 11:20 PM)
Average temperature yesterday: 47 °F

Past Weeks' High & Low Weather Summary

 TemperatureHumidityPressure
High55 °F (Dec 18, 4:50 PM)100% (Dec 14, 3:50 AM)30.39 "Hg (Dec 14, 3:50 AM)
Low30 °F (Dec 14, 5:50 AM)70% (Dec 15, 7:50 AM)29.42 "Hg (Dec 12, 12:50 PM)
Average44 °F86%29.96 "Hg
* Reported Dec 10 9:20 PM — Dec 25 9:50 PM, Hilden, Weather by CustomWeather, © 2014

Note: Actual official high and low records may vary slightly from our data, if they occured in-between our weather recording intervals... More about our weather records

Advertising

Hilden weather history for previous 24 hours

 ConditionsComfort  
Time TempWeatherWind HumidityBarometerVisibility
9:50 PM
Dec 25
37 °FPassing clouds.8 mph93%30.36 "HgN/A
9:20 PM37 °FPassing clouds.6 mph93%30.33 "HgN/A
8:50 PM36 °FClear.7 mph100%30.33 "Hg10 mi
8:20 PM37 °FClear.7 mph87%30.33 "Hg10 mi
7:50 PM37 °FClear.7 mph93%30.30 "Hg10 mi
7:20 PM37 °FClear.8 mph93%30.30 "Hg10 mi
6:50 PM39 °FClear.8 mph87%30.30 "Hg10 mi
6:20 PM39 °FClear.7 mph93%30.30 "Hg10 mi
5:50 PM39 °FClear.8 mph87%30.27 "Hg10 mi
5:20 PM41 °FPassing clouds.10 mph87%30.27 "HgN/A
4:20 PM39 °FPartly sunny.5 mph93%30.24 "HgN/A
3:50 PM39 °FRain showers. Partly sunny.18 mph93%30.24 "Hg2 mi
3:20 PM41 °FPartly sunny.7 mph87%30.24 "HgN/A
2:50 PM41 °FPartly sunny.8 mph87%30.24 "HgN/A
2:20 PM39 °FPartly sunny.8 mph93%30.24 "HgN/A
1:50 PM41 °FPartly sunny.13 mph87%30.24 "HgN/A
1:20 PM41 °FRain showers. Broken clouds.17 mph87%30.21 "Hg4 mi
12:50 PM43 °FSprinkles. Partly sunny.16 mph81%30.21 "HgN/A
12:20 PM43 °FPartly sunny.15 mph81%30.21 "HgN/A
11:50 AM43 °FScattered showers. Partly sunny.14 mph81%30.21 "HgN/A
11:20 AM43 °FPartly sunny.13 mph81%30.21 "HgN/A
10:50 AM43 °FPartly sunny.14 mph81%30.21 "HgN/A
10:20 AM41 °FPartly sunny.14 mph81%30.21 "HgN/A
9:50 AM41 °FBroken clouds.15 mph81%30.21 "HgN/A
9:20 AM41 °FPartly sunny.13 mph81%30.18 "HgN/A
8:50 AM39 °FScattered clouds.12 mph81%30.18 "HgN/A
8:20 AM39 °FPassing clouds.14 mph81%30.18 "HgN/A
7:50 AM41 °FPassing clouds.13 mph81%30.18 "HgN/A
7:20 AM39 °FPassing clouds.13 mph87%30.15 "HgN/A
6:50 AM39 °FPassing clouds.10 mph87%30.15 "HgN/A
6:20 AM39 °FClear.8 mph81%30.15 "Hg10 mi
5:50 AM39 °FClear.8 mph81%30.15 "Hg10 mi
5:20 AM39 °FClear.12 mph81%30.15 "Hg10 mi
4:50 AM39 °FClear.12 mph81%30.15 "Hg10 mi
4:20 AM39 °FClear.10 mph81%30.15 "Hg10 mi
3:50 AM39 °FClear.9 mph81%30.15 "Hg10 mi
3:20 AM39 °FPassing clouds.10 mph75%30.15 "HgN/A
2:50 AM39 °FPassing clouds.12 mph81%30.15 "HgN/A
2:20 AM39 °FPassing clouds.12 mph81%30.12 "HgN/A
1:50 AM41 °FPassing clouds.10 mph76%30.12 "HgN/A
1:20 AM41 °FPassing clouds.13 mph81%30.12 "HgN/A
12:50 AM41 °FPassing clouds.12 mph87%30.12 "HgN/A
12:20 AM41 °FPassing clouds.9 mph81%30.12 "HgN/A
11:50 PM
Dec 24
41 °FClear.9 mph81%30.12 "Hg10 mi
11:20 PM41 °FClear.10 mph81%30.12 "Hg10 mi
Weather by CustomWeather, © 2014

See weather overviewHow to use our weather pages